Data for 04/02/2009

Time Sea-Level Adjusted Pressure Absolute Pressure Temperature Relative Humidity Dew Point   
(mb) (inHg) (mb) (inHg) (C) (F) (%) (C) (F)
00:05 1009 29.8 838 24.75 -1.4 29.4 60 -8.1 17.3
00:10 1009 29.8 838 24.75 -1.5 29.3 62 -8 17.6
00:15 1008 29.77 838 24.75 -1.6 29.2 61 -8.1 17.4
00:20 1008 29.77 838 24.75 -1.7 28.9 62 -8 17.6
00:25 1008 29.77 838 24.75 -1.8 28.8 63 -7.9 17.7
00:30 1008 29.77 838 24.75 -1.7 28.9 63 -8 17.7
00:35 1008 29.77 837 24.72 -1.6 29.2 62 -8 17.6
00:40 1008 29.77 837 24.72 -1.7 28.9 64 -7.8 18
00:45 1008 29.77 837 24.72 -1.8 28.7 64 -7.8 17.9
00:50 1008 29.77 837 24.72 -1.7 28.9 64 -7.6 18.2
00:55 1008 29.77 837 24.72 -1.7 28.9 64 -7.6 18.3
01:00 1008 29.77 837 24.72 -1.8 28.7 65 -7.5 18.4
01:05 1008 29.77 837 24.72 -2 28.4 66 -7.5 18.4
01:10 1008 29.77 837 24.72 -2 28.4 67 -7.4 18.7
01:15 1008 29.77 837 24.72 -2 28.5 67 -7.4 18.7
01:20 1008 29.77 837 24.72 -1.9 28.5 67 -7.3 18.8
01:25 1008 29.77 837 24.72 -1.9 28.5 67 -7.3 18.8
01:30 1008 29.77 837 24.72 -1.9 28.6 67 -7.3 18.9
01:35 1008 29.77 837 24.72 -1.9 28.6 66 -7.4 18.7
01:40 1008 29.77 837 24.72 -1.9 28.5 67 -7.2 19
01:45 1008 29.77 837 24.72 -1.9 28.5 67 -7.3 18.8
01:50 1008 29.77 837 24.72 -1.9 28.6 66 -7.4 18.6
01:55 1008 29.77 837 24.72 -1.9 28.5 66 -7.4 18.6
02:00 1008 29.77 837 24.72 -1.9 28.6 67 -7.3 18.9
02:05 1008 29.77 837 24.72 -1.8 28.8 64 -7.6 18.2
02:10 1008 29.77 837 24.72 -1.6 29.2 62 -7.9 17.9
02:15 1008 29.77 837 24.72 -1.3 29.7 63 -7.5 18.4
02:20 1008 29.77 837 24.72 -1.1 30 65 -7 19.4
02:25 1008 29.77 837 24.72 -1.2 29.8 63 -7.3 18.8
02:30 1008 29.77 837 24.72 -1.5 29.4 64 -7.5 18.5
02:35 1008 29.77 837 24.72 -1.5 29.3 63 -7.7 18.1
02:40 1008 29.77 837 24.72 -1.5 29.3 64 -7.4 18.7
02:45 1008 29.77 837 24.72 -1.5 29.3 65 -7.2 19.1
02:50 1008 29.77 837 24.72 -1.6 29.1 67 -7 19.4
02:55 1008 29.77 837 24.72 -1.6 29.1 66 -7.3 18.9
03:00 1008 29.77 837 24.72 -1.6 29.1 64 -7.6 18.4
03:05 1008 29.77 837 24.72 -1.5 29.3 65 -7.3 18.8
03:10 1007 29.74 837 24.72 -1.4 29.4 65 -7.1 19.2
03:15 1007 29.74 837 24.72 -1.5 29.3 64 -7.4 18.7
03:20 1007 29.74 837 24.72 -1.4 29.4 64 -7.3 18.8
03:25 1007 29.74 837 24.72 -1.4 29.4 65 -7.1 19.2
03:30 1007 29.74 837 24.72 -1.3 29.6 65 -7 19.4
03:35 1007 29.74 837 24.72 -1.3 29.6 65 -7.2 19.1
03:40 1007 29.74 837 24.72 -1.4 29.4 65 -7.2 19
03:45 1007 29.74 837 24.72 -1.5 29.4 64 -7.4 18.6
03:50 1007 29.74 837 24.72 -1.4 29.6 64 -7.4 18.7
03:55 1007 29.74 837 24.72 -1.2 29.8 64 -7.3 18.9
04:00 1007 29.74 837 24.72 -1.1 30 62 -7.4 18.6
04:05 1007 29.74 837 24.72 -0.9 30.3 61 -7.4 18.6
04:10 1007 29.74 836 24.69 -0.8 30.5 63 -7 19.4
04:15 1007 29.74 836 24.69 -0.7 30.7 63 -7 19.5
04:20 1007 29.74 836 24.69 -0.5 31.1 61 -7.2 19.1
04:25 1007 29.74 836 24.69 -0.3 31.5 61 -6.9 19.6
04:30 1007 29.74 836 24.69 -0.5 31.2 65 -6.2 20.9
04:35 1007 29.74 836 24.69 -1.2 29.8 68 -6.5 20.4
04:40 1007 29.74 836 24.69 -1.4 29.4 70 -6.3 20.7
04:45 1007 29.74 836 24.69 -1.6 29.1 69 -6.6 20.1
04:50 1007 29.74 836 24.69 -1.6 29.1 67 -6.9 19.6
04:55 1007 29.74 836 24.69 -1.5 29.3 67 -6.8 19.7
05:00 1007 29.74 836 24.69 -1.5 29.4 66 -7.1 19.3
05:05 1007 29.74 836 24.69 -1.3 29.7 66 -6.8 19.7
05:10 1007 29.74 836 24.69 -0.9 30.4 63 -7 19.4
05:15 1007 29.74 836 24.69 -0.4 31.3 61 -7 19.3
05:20 1007 29.74 836 24.69 -0.3 31.5 60 -7.1 19.3
05:25 1007 29.74 836 24.69 -0.1 31.7 60 -7 19.4
05:30 1007 29.74 836 24.69 -0.1 31.7 59 -7.3 18.8
05:35 1007 29.74 836 24.69 -0.2 31.7 60 -6.9 19.6
05:40 1007 29.74 836 24.69 -0.2 31.6 61 -6.9 19.5
05:45 1007 29.74 836 24.69 -0.2 31.6 62 -6.7 19.9
05:50 1007 29.74 836 24.69 -0.3 31.5 61 -6.9 19.6
05:55 1007 29.74 836 24.69 -0.2 31.6 61 -6.9 19.5
06:00 1007 29.74 836 24.69 -0.2 31.7 61 -6.7 19.9
06:05 1007 29.74 836 24.69 -0.2 31.6 63 -6.5 20.4
06:10 1007 29.74 836 24.69 -0.3 31.4 62 -6.8 19.8
06:15 1007 29.74 836 24.69 -0.5 31.1 67 -5.9 21.4
06:20 1007 29.74 836 24.69 -1.2 29.9 68 -6.3 20.7
06:25 1007 29.74 836 24.69 -1.3 29.7 68 -6.5 20.3
06:30 1007 29.74 836 24.69 -1.2 29.9 68 -6.4 20.6
06:35 1007 29.74 836 24.69 -1.2 29.9 66 -6.7 19.9
06:40 1007 29.74 836 24.69 -1.1 30.1 67 -6.5 20.4
06:45 1007 29.74 836 24.69 -1.1 30.1 66 -6.6 20.1
06:50 1007 29.74 836 24.69 -1 30.3 67 -6.4 20.4
06:55 1007 29.74 836 24.69 -0.9 30.4 66 -6.4 20.5
07:00 1006 29.71 836 24.69 -0.9 30.3 67 -6.4 20.5
07:05 1006 29.71 836 24.69 -1 30.1 67 -6.4 20.5
07:10 1006 29.71 836 24.69 -1 30.2 68 -6.2 20.8
07:15 1006 29.71 836 24.69 -1 30.3 67 -6.4 20.6
07:20 1006 29.71 836 24.69 -0.9 30.4 67 -6.3 20.7
07:25 1006 29.71 836 24.69 -1 30.3 68 -6.1 21.1
07:30 1006 29.71 836 24.69 -1.1 30 67 -6.4 20.4
07:35 1006 29.71 836 24.69 -1.1 30 67 -6.5 20.4
07:40 1007 29.74 836 24.69 -1.1 29.9 68 -6.2 20.8
07:45 1007 29.74 836 24.69 -1.1 30 66 -6.8 19.8
07:50 1006 29.71 836 24.69 -0.9 30.4 65 -6.8 19.8
07:55 1006 29.71 836 24.69 -0.6 30.9 65 -6.4 20.5
08:00 1006 29.71 836 24.69 -0.6 31 64 -6.6 20.1
08:05 1006 29.71 836 24.69 -0.4 31.2 63 -6.7 19.9
08:10 1006 29.71 835 24.66 -0.5 31.2 66 -6 21.2
08:15 1006 29.71 835 24.66 -0.6 30.9 67 -6 21.2
08:20 1006 29.71 835 24.66 -0.6 30.9 66 -6.1 21
08:25 1006 29.71 835 24.66 -0.5 31.1 68 -5.8 21.6
08:30 1006 29.71 835 24.66 -0.4 31.2 67 -5.7 21.7
08:35 1006 29.71 835 24.66 -0.3 31.5 66 -5.8 21.6
08:40 1006 29.71 835 24.66 -0 32 66 -5.6 21.9
08:45 1006 29.71 835 24.66 -0 32 67 -5.5 22.1
08:50 1006 29.71 835 24.66 0.1 32.2 67 -5.2 22.6
08:55 1006 29.71 835 24.66 0.5 32.9 67 -5 22.9
09:00 1006 29.71 835 24.66 0.2 32.3 69 -4.9 23.2
09:05 1006 29.71 835 24.66 0.1 32.1 69 -5 23
09:10 1006 29.71 835 24.66 -0.1 31.9 69 -5 22.9
09:15 1006 29.71 835 24.66 0.2 32.4 68 -5 22.9
09:20 1006 29.71 835 24.66 0.4 32.8 67 -5 23
09:25 1006 29.71 835 24.66 0.7 33.3 65 -5 23
09:30 1006 29.71 835 24.66 1 33.9 65 -4.8 23.3
09:35 1005 29.68 835 24.66 1.6 34.8 61 -5.2 22.7
09:40 1005 29.68 835 24.66 1.9 35.3 60 -5.1 22.9
09:45 1005 29.68 834 24.63 1.9 35.4 58 -5.5 22.1
09:50 1005 29.68 834 24.63 2.2 35.9 57 -5.5 22
09:55 1005 29.68 834 24.63 2.4 36.3 56 -5.5 22
10:00 1005 29.68 834 24.63 2.5 36.5 56 -5.4 22.2
10:05 1005 29.68 834 24.63 2.7 36.9 55 -5.5 22.1
10:10 1005 29.68 834 24.63 2.5 36.6 56 -5.4 22.3
10:15 1005 29.68 834 24.63 2.5 36.6 55 -5.5 22
10:20 1005 29.68 834 24.63 2.6 36.8 55 -5.5 22.1
10:25 1005 29.68 834 24.63 2.9 37.2 53 -5.7 21.8
10:30 1005 29.68 834 24.63 3.2 37.7 50 -6.3 20.7
10:35 1005 29.68 834 24.63 3.3 37.9 52 -5.8 21.6
10:40 1005 29.68 834 24.63 3.7 38.6 50 -5.9 21.4
10:45 1004 29.65 834 24.63 3.7 38.6 50 -5.7 21.7
10:50 1004 29.65 834 24.63 3.8 38.8 52 -5.3 22.5
10:55 1004 29.65 834 24.63 4.4 39.9 48 -5.8 21.6
11:00 1004 29.65 834 24.63 4.4 40 48 -5.6 21.9
11:05 1004 29.65 833 24.6 4.2 39.6 52 -4.9 23.2
11:10 1004 29.65 833 24.6 4 39.3 50 -5.5 22.1
11:15 1004 29.65 833 24.6 4.1 39.3 49 -5.6 21.8
11:20 1004 29.65 833 24.6 4.6 40.3 47 -5.7 21.8
11:25 1004 29.65 833 24.6 5 40.9 48 -5 22.9
11:30 1004 29.65 833 24.6 5.6 42 44 -5.6 21.9
11:35 1004 29.65 833 24.6 5.8 42.5 44 -5.4 22.3
11:40 1004 29.65 833 24.6 5.2 41.3 47 -5.2 22.7
11:45 1004 29.65 834 24.63 4.5 40.1 48 -5.5 22.1
11:50 1004 29.65 833 24.6 5.1 41.2 45 -5.8 21.5
11:55 1004 29.65 833 24.6 5.7 42.2 45 -5.4 22.2
12:00 1004 29.65 833 24.6 6.1 43 45 -5.1 22.9
12:05 1004 29.65 833 24.6 6.3 43.4 43 -5.4 22.4
12:10 1004 29.65 833 24.6 6.4 43.6 46 -4.4 24.1
12:15 1004 29.65 833 24.6 6.1 43.1 45 -4.8 23.3
12:20 1004 29.65 833 24.6 5.7 42.2 47 -4.8 23.3
12:25 1004 29.65 833 24.6 6.1 43 44 -5.3 22.5
12:30 1004 29.65 833 24.6 6.3 43.4 44 -5 22.9
12:35 1004 29.65 833 24.6 6.3 43.3 46 -4.5 23.9
12:40 1004 29.65 833 24.6 5.8 42.5 49 -4 24.8
12:45 1004 29.65 833 24.6 6.3 43.4 44 -4.9 23.1
12:50 1004 29.65 833 24.6 6.2 43.2 49 -3.6 25.4
12:55 1004 29.65 833 24.6 6.4 43.5 46 -4.5 23.9
13:00 1004 29.65 833 24.6 5.8 42.4 48 -4.5 23.9
13:05 1004 29.65 833 24.6 5.9 42.7 49 -4.1 24.6
13:10 1004 29.65 833 24.6 5.5 41.9 50 -4.1 24.6
13:15 1004 29.65 833 24.6 5.8 42.4 48 -4.4 24.1
13:20 1004 29.65 833 24.6 5.6 42.1 49 -4.3 24.3
13:25 1004 29.65 833 24.6 5.3 41.6 51 -4 24.7
13:30 1003 29.62 833 24.6 5.9 42.5 47 -4.6 23.7
13:35 1004 29.65 833 24.6 5.9 42.7 49 -4 24.9
13:40 1004 29.65 833 24.6 5.4 41.7 52 -3.7 25.3
13:45 1004 29.65 833 24.6 5.2 41.4 52 -3.9 25
13:50 1004 29.65 833 24.6 5.5 41.9 53 -3.2 26.2
13:55 1004 29.65 833 24.6 4.9 40.7 57 -2.9 26.8